Regional Weather Roundup
Issued by NWS

Home | Current Version | Previous Version | Graphics & Text | Print | Product List | Glossary On
Versions: 1 2 3 4 5 6 7 8 9 10 11 12 13 14 15 16 17 18 19 20 21 22 23 24 25 26 27 28 29 30 31 32 33 34 35 36 37 38 39 40 41 42 43 44 45 46 47 48 49 50
000
ASUS43 KDTX 062010
RWRMI
MICHIGAN HOURLY REGIONAL WEATHER ROUNDUP
NATIONAL WEATHER SERVICE DETROIT/PONTIAC MI
400 PM EDT MON JUL 06 2015

NOTE: "FAIR" INDICATES FEW OR NO CLOUDS BELOW 12,000 FEET WITH NO
SIGNIFICANT WEATHER AND/OR OBSTRUCTION TO VISIBILITY.

MIZ047>049-052>055-059>063-066>070-074>076-081>083-062100-
SOUTHEAST LOWER MICHIGAN

CITY           SKY/WX    TMP DP  RH WIND       PRES   REMARKS
ADRIAN         SUNNY     83  63  50 S9        30.00F
ALMA           PTSUNNY   83  63  51 S12       29.95F
ANN ARBOR      SUNNY     82  63  52 S7        30.00F
BAD AXE        MOSUNNY   83  58  42 S7        29.97F
CARO           MOSUNNY   84  61  45 SW8G16    29.97S
DETROIT CITY   SUNNY     83  57  41 S12       30.00F
DETROIT        PTSUNNY   84  61  45 S6G16     30.01F
FLINT          MOSUNNY   85  63  47 S13       29.98F
GROSSE ILE     SUNNY     79  66  65 SE8       30.00F
HILLSDALE      MOSUNNY   83  63  50 S9        30.00F
HOWELL         MOSUNNY   83  60  46 SW8       29.99F

CITY           SKY/WX    TMP DP  RH WIND       PRES   REMARKS
JACKSON        SUNNY     82  64  54 SW15      29.99F
LAMBERTVILLE   MOSUNNY   84  60  43 W5        30.02F
LANSING        MOSUNNY   83  65  54 S13       29.97F
LAPEER         FAIR      85  52  32 S9        29.99F
MASON          MOSUNNY   80  64  58 S8        29.97F
MONROE         MOSUNNY   82  64  53 SW5       30.00F
MT. CLEMENS    MOSUNNY   82  64  54 SE10      29.99F
PONTIAC        MOSUNNY   83  59  44 S10       29.99F
PORT HOPE        N/A     74  64  71 SE10      29.95F
PORT HURON     SUNNY     81  55  41 S6        30.00F
TRI CITIES     PTSUNNY   84  64  50 S13       29.95F
MIDLAND        FAIR      84  63  49 S12G17    29.93F
TROY           SUNNY     86  55  35 S8        30.01F
SAGINAW HB     MOSUNNY   82  59  44 SW12G20   29.95F
$$
MIZ043>046-050>051-056>058-064>065-071>073-077>080-062100-
SOUTHWEST LOWER MICHIGAN

CITY           SKY/WX    TMP DP  RH WIND       PRES   REMARKS
BATTLE CREEK   PTSUNNY   84  67  56 S15G22    29.98F
BENTON HARBOR  PTSUNNY   85  68  56 S13       29.94S
BIG RAPIDS     CLOUDY    81  61  50 SW13      29.93S
COLDWATER      MOSUNNY   82  64  54 S7        29.98F
FREMONT        FAIR      84  58  41 S15G22    29.93S
HOLLAND        PTSUNNY   87  65  47 S14       29.94S
GRAND RAPIDS   CLOUDY    84  65  52 S12       29.95F
IONIA          FAIR      83  63  49 S12       29.95S
KALAMAZOO      MOSUNNY   84  67  56 S8G21     29.96F
LUDINGTON      PTSUNNY   81  67  62 SW17G25   29.90S
MARSHALL       MOSUNNY   83  66  56 S9        29.97F
MOUNT PLEASANT PTSUNNY   83  62  48 S12       29.93F
MUSKEGON       CLOUDY    83  61  47 S16       29.93S
SOUTH HAVEN    PTSUNNY   84  64  51 S10       29.94S
$$
MIZ016>042-062100-
NORTHERN LOWER MICHIGAN

CITY           SKY/WX    TMP DP  RH WIND       PRES   REMARKS
ALPENA         CLOUDY    85  62  46 S14       29.90F
BEAVER ISLAND  CLOUDY    80  64  58 SW12G24   29.85F
BELLAIRE       CLOUDY    85  61  44 S10       29.87F
CADILLAC       CLOUDY    82  63  52 S16G23    29.93S
CHARLEVOIX     CLOUDY    84  63  47 S13G18    29.89F
FRANKFORT      PTSUNNY   85  59  41 SW13G21   29.86F
GAYLORD        CLOUDY    81  61  50 S14G24    29.92F
GRAYLING       PTSUNNY   82  63  52 S9G17     29.92F
HARBOR SPRINGS CLOUDY    81  65  59 CALM      29.86F
HOUGHTON LAKE  PTSUNNY   81  62  52 S13       29.93F
MANISTEE       PTSUNNY   82  63  51 S14G24    29.89F
OSCODA         PTSUNNY   83  62  49 S13G22    29.93F
PELLSTON       CLOUDY    82  64  54 SW5       29.87F
ROGERS CITY    PTSUNNY   83  65  54 S9        29.89F
TRAVERSE CITY  CLOUDY    84  64  50 S8        29.85F
$$
MIZ007>008-015-062100-
EASTERN UPPER MICHIGAN

CITY           SKY/WX    TMP DP  RH WIND       PRES   REMARKS
KINROSS        CLOUDY    79  66  65 SW9       29.87F
MACKINAC ISLAN CLOUDY    79  65  61 CALM      29.87F
NEWBERRY       CLOUDY    73  64  75 S14G22    29.85F
S. S. MARIE    CLOUDY    81  66  60 SW16      29.86F
MUNISING         N/A     73  68  84 S7        29.77F
$$
MIZ004>006-011>014-085-062100-
CENTRAL UPPER MICHIGAN

CITY           SKY/WX    TMP DP  RH WIND       PRES   REMARKS
MANISTIQUE     CLOUDY    62  58  88 SW8       29.83F FOG
ESCANABA       CLOUDY    66  63  88 S8        29.80S
MENOMINEE      CLOUDY    73  66  78 S8        29.79F
SAWYER-GWINN   LGT RAIN  70  68  94 SW7       29.80F
$$
MIZ001>003-009>011-084-062100-
WESTERN UPPER MICHIGAN

CITY           SKY/WX    TMP DP  RH WIND       PRES   REMARKS
IRON MOUNTAIN  CLOUDY    71  68  90 S7        29.79F FOG
HOUGHTON       LGT RAIN  58  56  93 N9        29.85R FOG
COPPER HARBOR    N/A     49  47  93 N3        29.85S
IRONWOOD       CLOUDY    55  55 100 N6        29.88S
$$

ABBREVIATIONS USED IN REMARKS
   TC - TEMPERATURE IN CELSIUS
  WCI - WIND CHILL INDEX
   HX - HEAT INDEX
  VSB - VISIBILITY




USA.gov is the U.S. government's official web portal to all federal, state and local government web resources and services.